www.pogodaiklimat.ru
ПОГОДА в Вожеге
Время
(UTC), дата
15 29.11
18 29.11
21 29.11
00 30.11
03 30.11
06 30.11
09 30.11
12 30.11
15 30.11
18 30.11
21 30.11
00 1.12
03 1.12
06 1.12
09 1.12
12 1.12
15 1.12
18 1.12
21 1.12
00 2.12
03 2.12
06 2.12
09 2.12
12 2.12
15 2.12
18 2.12
21 2.12
00 3.12
03 3.12
06 3.12
09 3.12
12 3.12
15 3.12
18 3.12
21 3.12
00 4.12
03 4.12
06 4.12
09 4.12
12 4.12
15 4.12
18 4.12
21 4.12
00 5.12
03 5.12
06 5.12
09 5.12
12 5.12
15 5.12
18 5.12
21 5.12
00 6.12
03 6.12
06 6.12
09 6.12
12 6.12
Ветер
(напр.,м/с)
Видим. Явления Облачность Т
(С)
Тd
(С)
f
(%)
Тe
(С)
Тes
(С)
Комфортность P
(гПа)
Po
(гПа)
Тmin
(С)
Tmax
(С)
R
(мм)
R24
(мм)
S
(см)
Ю 6
{11}
10 км 10/10 180 м
[St]
-0.2 -0.5 98 -7 -7 холодно 1003.0 978.2 -0.2
Ю 6-12
{13}
10 км 10/10 120 м
[St]
+0.3 0.0 98 -6 -6 холодно 1001.2 976.5
Ю 6-10
{12}
10 км слаб. ливневой снег 10/10 240 м
[Cb cap]
+0.4 -0.2 96 -6 -6 холодно 999.6 974.9
Ю 7-12
{12}
10 км слаб. ливневой снег 9/9 240 м
[Cb cap]
+0.3 0.0 98 -7 -7 холодно 998.5 973.8
Ю 6
{12}
10 км {ливн. осадки} 10/10 270 м
[Cb cap]
0.0 -0.3 98 -7 -7 холодно 997.7 973.0 -0.2 1 4
Ю 5
{10}
4800 м слаб. ливневой снег 10/10 210 м
[Cb cap]
-0.3 -0.6 98 -7 -7 холодно 996.6 971.9 -0.3
Ю 6-11
{11}
22 км {ливн. осадки} 10/10 240 м
[Cb cap]
-0.1 -0.4 98 -7 -7 холодно 995.3 970.6
Ю 6-10
{11}
40 км {ливн. осадки} 10/10 210 м
[Cb cap]
0.0 -0.3 98 -7 -7 холодно 993.8 969.2
Ю 5
{10}
10 км слаб. ливневой снег 10/10 240 м
[Cb cap]
-0.1 -0.4 98 -6 -6 холодно 993.6 969.0 0.0 3
ЮЗ 4 4000 м слаб. ливневой снег 10/10 210 м
[Cb cap]
0.0 -0.3 98 -6 -6 холодно 994.3 969.6
СЗ 5
{11}
20 км {ливн. осадки} 10/10 1080 м
[Sc]
-3.2 -3.9 95 -10 -10 очень
холодно
997.9 972.9
З 3 20 км {ливн. осадки} 10/10 300 м
[Frnb]
-4.7 -5.3 96 -10 -10 очень
холодно
1000.5 975.3
ЮЗ 2 10 км слаб. ливневой снег 9/9 300 м
[Cb cap]
-5.0 -5.7 95 -9 -9 очень
холодно
1002.0 976.7 -5.0 1 10
З 2 50 км {ливн. осадки} 6/6 300 м
[Cb cap]
-5.5 -6.2 95 -10 -10 очень
холодно
1003.0 977.7 -5.4
З 2 50 км {ливн. осадки} 5/5 600 м
[Cb cap]
-5.3 -6.7 90 -10 -9 очень
холодно
1004.4 979.0
З 3 10 км слаб. ливневой снег 9/9 500 м
[Cb cap]
-5.5 -7.0 89 -11 -11 очень
холодно
1005.5 980.1
ЮЗ 5-10
{10}
20 км {ливн. осадки} 9/9 600 м
[Sc]
-6.7 -8.3 88 -14 -14 очень
холодно
1006.1 980.5 -4.8 0.3
ЮЗ 3
{11}
10 км слаб. ливневой снег 10/10 270 м
[Cb cap]
-6.8 -7.7 93 -13 -13 очень
холодно
1005.5 979.9
ЮЗ 3 20 км в посл. час ливневой снег 10/10 300 м
[Cb cap]
-5.3 -6.1 94 -11 -11 очень
холодно
1005.1 979.7
ЮЗ 5 4000 м слаб. ливневой снег 10/10 270 м
[Cb cap]
-4.4 -5.0 96 -12 -12 очень
холодно
1003.7 978.4
ЮЗ 4-10
{10}
10 км слаб. ливневой снег {метель} 10/10 240 м
[Cb cap]
-3.7 -4.4 95 -10 -10 очень
холодно
1003.0 977.8 -7.4 1 13
ЮЗ 4
{10}
10 км слаб. ливневой снег {метель} 10/10 500 м
[Cb cap]
-3.5 -4.3 94 -10 -10 очень
холодно
1003.0 977.8
ЮЗ 4 1000 м ливневой снег {метель} 10/10 270 м
[Cb cap]
-3.0 -3.7 95 -9 -9 очень
холодно
1003.0 977.9
ЮЗ 5 5000 м слаб. ливневой снег {метель} 10/10 300 м
[Cb cap]
-2.8 -3.5 95 -10 -10 очень
холодно
1002.8 977.7
ЮЗ 4 10 км слаб. ливневой снег {метель} 10/10 330 м
[Cb cap]
-3.2 -3.9 95 -9 -9 очень
холодно
1002.6 977.5 -2.6 2
ЮЗ 3 10 км слаб. ливневой снег {метель} 10/10 210 м
[Cb cap]
-3.3 -4.0 95 -9 -9 очень
холодно
1003.2 978.0
ЮЗ 3 10 км слаб. ливневой снег 10/10 330 м
[Cb cap]
-3.2 -3.9 95 -9 -9 очень
холодно
1003.7 978.5
ЮЗ 3 10 км слаб. ливневой снег 10/10 360 м
[Cb cap]
-3.3 -4.0 95 -9 -9 очень
холодно
1003.5 978.3
ЮЗ 3 10 км слаб. ливневой снег 10/10 210 м
[]
-3.8 -4.6 94 -9 -9 очень
холодно
1003.0 977.8 -3.8 0.9 17
ЮЗ 4 15 км в посл. час ливневой снег 9/9 330 м
[Cb cap]
-3.9 -5.1 91 -10 -10 очень
холодно
1002.7 977.5 -4.0
ЮЗ 4 9000 м слаб. ливневой снег 9/8 360 м
[Cb cap Ac trans]
-4.0 -5.4 90 -10 -10 очень
холодно
1002.4 977.1
З 3 7000 м слаб. ливневой снег 10/10 240 м
[Cb cap]
-3.9 -4.4 96 -9 -9 очень
холодно
1002.3 977.1
ЮЗ 3 20 км {ливн. осадки} 10/10 660 м
[Sc]
-3.8 -4.6 94 -9 -9 очень
холодно
1002.4 977.2 -3.7 1
ЮЗ 3 10 км слаб. ливневой снег 10/10 300 м
[Cb cap]
-3.9 -4.7 94 -9 -9 очень
холодно
1002.6 977.4
З 3 10 км слаб. ливневой снег 10/10 300 м
[Cb cap]
-4.1 -5.3 91 -10 -10 очень
холодно
1003.2 978.0
З 3 20 км {ливн. осадки} 10/10 570 м
[Sc]
-4.3 -6.2 87 -10 -10 очень
холодно
1004.0 978.7
З 3 4000 м слаб. ливневой снег 10/10 240 м
[Cb cap]
-4.4 -5.0 96 -10 -10 очень
холодно
1003.4 978.1 -4.4 0.8 17
ЮЗ 3 6000 м слаб. ливневой снег 10/10 270 м
[Cb cap]
-4.6 -5.5 93 -10 -10 очень
холодно
1002.3 977.0 -4.6
ЮЗ 2 1600 м ливневой снег 10/10 240 м
[Cb cap]
-4.3 -5.2 93 -9 -9 очень
холодно
1000.5 975.3
Ю 3 1900 м ливневой снег 10/10 300 м
[Cb cap]
-3.7 -4.2 96 -9 -9 очень
холодно
998.2 973.1
ЮЗ 2 10 км слаб. снег 10/10 270 м
[Frnb Ns]
-3.4 -3.8 97 -8 -8 очень
холодно
997.1 972.1 -3.4 4
Ю 1 10 км слаб. снег 10/10 270 м
[Frnb Ns]
-3.3 -3.7 97 -6 -6 холодно 997.6 972.6
штиль 0 10 км слаб. снег 10/10 330 м
[Frnb Ns]
-3.1 -3.5 97 -4 -4 прохладно 999.0 973.9
З 2 10 км слаб. снег 10/10 270 м
[Frnb Ns]
-2.7 -3.0 98 -7 -7 холодно 999.5 974.5
ЮЗ 1 10 км слаб. снег 10/10 210 м
[Frnb Ns]
-2.5 -2.6 99 -5 -5 холодно 1000.3 975.3 -3.8 0.8 20
ЮЗ 1 2400 м дымка {снег} 10/10 210 м
[St]
-1.7 -1.9 99 -4 -4 прохладно 999.8 974.9
ЮЗ 4 12 км в посл. час туман 10/10 90 м
[St]
-0.1 -0.4 98 -6 -6 холодно 997.8 973.1
З 4
{11}
600 м туман {снег} ?/? +0.6 +0.6 100 -5 -5 холодно 994.8 970.3
З 5-10
{11}
10 км {туман} 10/10 150 м
[St]
+1.4 +1.3 99 -5 -5 холодно 994.0 969.5 +1.4 1
З 5-10
{12}
10 км слаб. дождь {туман} 10/10 180 м
[Frnb Ns]
+1.8 +1.3 96 -4 -4 прохладно 992.2 967.8
З 5-12
{12}
10 км слаб. дождь 10/10 180 м
[Frnb Ns]
+2.2 +1.7 96 -4 -4 прохладно 991.8 967.4
З 5-12
{14}
20 км в посл. час дождь 10/10 300 м
[Frnb]
+2.4 +1.1 91 -3 -3 прохладно 991.5 967.2
З 4
{12}
10 км слаб. ливневой дождь 10/10 500 м
[Cb cap]
+2.2 +1.2 93 -3 -3 прохладно 991.3 967.0 +1.4 1 12
ЮЗ 5 18 км слаб. ливневой дождь 10/10 300 м
[Cb cap]
+1.9 +1.1 94 -4 -4 прохладно 990.4 966.0
З 5-11
{11}
30 км {ливн. осадки} 10/10 330 м
[Cb cap]
+2.6 +1.6 93 -3 -3 прохладно 991.0 966.7
ЮЗ 4
{12}
15 км слаб. ливневой дождь 10/10 300 м
[Cb cap]
+2.3 +1.3 93 -3 -3 прохладно 990.9 966.5
Местоположение метеостанции Вожега (Вологодская область, Россия): широта 60.47 долгота 40.20 высота над уровнем моря 201 м.
В архиве по умолчанию представлена погода в Вожеге за последнюю неделю. Архивные данные за месяц целиком и за предыдущие месяцы, начиная с января 2011 года, Вы можете получить, выбрав интересующий диапазон дат из раскрывающегося списка и нажав кнопку "Найти!".
*Определитесь, кто Вы:
Внимание! Время в таблицах - всемирное. Для получения местного времени необходимо прибавить поправку, которая равна 3 ч.
Смотрите также архив погоды в соседних городах и на ближайших метеорологических станциях:
Партнеры нашего сайта:      
Пояснения к столбцам:
  • Ветер - указаны скорость ветра в м/с - средняя за 10 мин, порывы в срок и между сроками (в фигурных скобках) и направление, откуда дует ветер: С - северный,
  • СВ - северо-восточный, В - восточный, ЮВ - юго-восточный, Ю - южный, ЮЗ - юго-западный, З - западный, СЗ - северо-западный.
  • Видимость - горизонтальная дальность видимости в метрах или километрах. При видимости от 1 до 10 км при отсутствии осадков обычно наблюдается дымка, при ухудшении видимости до 1 км и менее - туман. В сухую погоду видимость может ухудшаться дымом, пылью или мглою.
  • Явления - указаны атмосферные явления, наблюдавшиеся в срок или в последний час перед сроком; фигурными скобками обозначены явления, наблюдавшиеся между сроками (за 1-3 часа до срока); квадратными скобками обозначены град или гололедные отложения с указанием их диаметра в мм.
  • Облачность - указаны через наклонную черту общая и нижняя облачность в баллах и высота нижней границы облаков в метрах; квадратными скобками обозначены формы облаков: Ci - перистые, Cs - перисто-слоистые, Cc - перисто-кучевые, Ac - высококучевые, As - высокослоистые, Sc - слоисто-кучевые, Ns - слоисто-дождевые, Cu - кучевые, Cb - кучево-дождевые. Подробнее классификацию облаков см. в Атласе облаков (PDF).
  • T - Температура воздуха - температура, измеренная на высоте 2 м над землей.
  • Td - Температура точки росы - температура, при понижении до которой содержащийся в воздухе водяной пар достигнет насыщения.
  • f - Относительная влажность воздуха - влажноcть воздуха, измеренная на высоте 2 м над землей.
  • Te - Эффективная температура - температура, которую ощущает одетый по сезону человек в тени. Характеристика душности погоды. При расчете учитывается влияние влажности воздуха и скорости ветра на теплоощущения человека.
  • Tes - Эффективная температура на солнце - температура, которую ощущает человек, с поправкой на солнечный нагрев. Характеристика знойности погоды. Зависит от высоты солнца над горизонтом, облачности и скорости ветра. Ночью, в пасмурную погоду, а также при ветре 12 м/с и более поправка равна нулю.
  • P - Атмосферное давление - приведенное к уровню моря атмосферное давление.
  • Po - Атмосферное давление - измеренное на уровне метеостанции атмосферное давление.
  • Tmin - Минимальная температура - минимум температуры воздуха на высоте 2 м над землей.
  • Tmax - Максимальная температура - максимум температуры воздуха на высоте 2 м над землей.
  • R - Количество осадков - Количество выпавших осадков за период времени, мм. При наведении курсора мыши на число - период времени, за который выпало указанное количество осадков.
  • R24 - Количество осадков - Количество выпавших осадков за 24 часа, мм.
  • S - Снежный покров - Высота снежного покрова, см. При наведении курсора мыши на число - состояние снежного покрова и степень покрытия местности в баллах.